Sibirskiy-2112 — UBXE8 — position and weather

sailwx.info

Track history (hours):
 
Tides and Currents Weather Stations Pressure Air Temp Water Temp Dewpoint Dewpoint Depression Visibility Wind Speed Wind Dir Waves Ship Positions

Sibirskiy-2112

Last reported at 2015-Mar-25 15:31 UTC. Time now 2015-Mar-28 22:14 UTC.
Position N 40°45' E 029°28'.

Length 129 m; draft 3 m.

Type: Cargo ship. MMSI: 273342420.

Date/timePositionNaut miles runAvg speedWind from/ knotsBaromVisibWave heightAir tempDewpointWater temp
2015-Mar-25 15:31N 40°45' E 029°28'6 6.2
2015-Mar-25 14:33N 40°44' E 029°21'6 6.3
2015-Mar-25 13:33N 40°45' E 029°12'0 0.3
2015-Mar-25 12:31N 40°44' E 029°12'0 0.4
2015-Mar-25 11:33N 40°44' E 029°12'1 0.6
2015-Mar-25 10:30N 40°44' E 029°13'1 0.9
2015-Mar-25 09:33N 40°44' E 029°14'1 1.3
2015-Mar-25 08:33N 40°44' E 029°16'1 1.2
2015-Mar-25 07:33N 40°44' E 029°15'7 6.8
2015-Mar-25 06:33N 40°44' E 029°06'10 7.7
2015-Mar-25 05:16N 40°44' E 028°53'  
2015-Mar-22 18:13N 36°35' E 026°05'5 1.0
2015-Mar-22 13:32N 36°30' E 026°05'9 8.2
2015-Mar-22 12:28N 36°21' E 026°07'8 8.9
2015-Mar-22 11:33N 36°13' E 026°08'10 8.6
2015-Mar-22 10:25N 36°04' E 026°09'  
Track history (hours):
 
Tides and Currents Weather Stations Pressure Air Temp Water Temp Dewpoint Dewpoint Depression Visibility Wind Speed Wind Dir Waves Ship Positions

Sibirskiy-2112

Last reported at 2015-Mar-25 15:31 UTC. Time now 2015-Mar-28 22:14 UTC.
Position N 40°45' E 029°28'.

Length 129 m; draft 3 m.

Type: Cargo ship. MMSI: 273342420.

Date/timePositionNaut miles runAvg speedWind from/ knotsBaromVisibWave heightAir tempDewpointWater temp
2015-Mar-25 15:31N 40°45' E 029°28'6 6.2
2015-Mar-25 14:33N 40°44' E 029°21'6 6.3
2015-Mar-25 13:33N 40°45' E 029°12'0 0.3
2015-Mar-25 12:31N 40°44' E 029°12'0 0.4
2015-Mar-25 11:33N 40°44' E 029°12'1 0.6
2015-Mar-25 10:30N 40°44' E 029°13'1 0.9
2015-Mar-25 09:33N 40°44' E 029°14'1 1.3
2015-Mar-25 08:33N 40°44' E 029°16'1 1.2
2015-Mar-25 07:33N 40°44' E 029°15'7 6.8
2015-Mar-25 06:33N 40°44' E 029°06'10 7.7
2015-Mar-25 05:16N 40°44' E 028°53'  
2015-Mar-22 18:13N 36°35' E 026°05'5 1.0
2015-Mar-22 13:32N 36°30' E 026°05'9 8.2
2015-Mar-22 12:28N 36°21' E 026°07'8 8.9
2015-Mar-22 11:33N 36°13' E 026°08'10 8.6
2015-Mar-22 10:25N 36°04' E 026°09'  

Dump ship's entire track history